Regional Weather Roundup
Issued by NWS Nashville, TN

Home | Current Version | Previous Version | Text Only | Print | Product List | Glossary On
Versions: 1 2 3 4 5 6 7 8 9 10 11 12 13 14 15 16 17 18 19 20 21 22 23 24 25 26 27 28 29 30 31 32 33 34 35 36 37 38 39 40 41 42 43 44 45 46 47 48 49 50
000
ASUS44 KOHX 211615
RWROHX
MIDDLE TENNESSEE HOURLY WEATHER ROUNDUP
NATIONAL WEATHER SERVICE NASHVILLE TN
1100 AM CDT MON APR 21 2014

NOTE: "FAIR" INDICATES FEW OR NO CLOUDS BELOW 12,000 FEET WITH
NO SIGNIFICANT WEATHER AND/OR OBSTRUCTIONS TO VISIBILITY.

* THESE REPORTS ARE NOT UNDER NWS QUALITY CONTROL AND MAY NOT
  REPORT WEATHER SUCH AS PRECIPITATION AND FOG.


TNZ005>011-023>034-057-059-062>066-078-080-211700
...NORTHERN MIDDLE TENNESSEE...

CITY           SKY/WX    TMP DP  RH WIND       PRES   REMARKS
BAXTER*          N/A     75  52  43 SW5         N/A
BRENTWOOD*       N/A     75  54  46 W1          N/A
CASTALIAN SPRG   N/A     75  52  43 W5          N/A
CLARKSVILLE    CLOUDY    72  52  49 W5        30.07S
COLUMBIA       SUNNY     73  59  60 S5        30.09S
CROSSVILLE     SUNNY     71  42  35 VRB3      30.14F
GALLATIN         N/A     73  50  44 SW5       30.10S
DICKSON        CLOUDY    73  46  38 SW7       30.08F
FAIRFIELD GLAD   N/A     70  46  43 W2          N/A
GOODLETTSVILLE   N/A     68  55  64 CALM        N/A
JOELTON*         N/A     73  54  49 CALM        N/A
KINGSTON SPGS*   N/A     70  52  52 CALM        N/A
LAFAYETTE*       N/A     70  48  46 SW8         N/A
LIVINGSTON     SUNNY     70  44  38 SW10      30.12F
MONTEREY         N/A     73  48  40 CALM        N/A
MOUNT JULIET*    N/A     72  54  53 CALM        N/A
NASHVILLE      CLOUDY    73  49  42 S6        30.09S
OLD HICKORY*     N/A     70  57  64 N5          N/A
PEGRAM*          N/A    N/A N/A N/A E2          N/A
SMYRNA         PTSUNNY   73  51  45 S10       30.10F
SPARTA         SUNNY     75  50  41 S7        30.11F
SPRINGFIELD*     N/A     73  59  60 MISG        N/A
WHITE BLUFF*     N/A     73  50  43 E1          N/A
$$
TNZ056-058-060-061-075>077-079-093>097-211700
...SOUTHERN MIDDLE TENNESSEE...

CITY           SKY/WX    TMP DP  RH WIND       PRES   REMARKS
BELLEVUE*        N/A     70  55  60 SE1         N/A
CULLEOKA*        N/A     70  52  52 CALM        N/A
EAGLEVILLE*      N/A    N/A N/A N/A SW3         N/A
FAYETTEVILLE   MOSUNNY   69  49  48 SW8       30.12F
HOHENWALD*       N/A     68  50  52 SE1         N/A
LEWISBURG      PTSUNNY   71  51  49 S6        30.11S
MANCHESTER*      N/A     73  55  53 CALM        N/A
MCMINNVILLE      N/A     74  49  41 S6        30.11F
MOUNT PLEASANT   N/A     72  55  56 SE2         N/A
MURFREESBORO   PTSUNNY   73  49  42 SW8       30.10S
SHELBYVILLE    PTSUNNY   72  52  49 S7        30.13S
SPRING HILL*     N/A     72  54  53 SW3         N/A
TULLAHOMA      SUNNY     72  46  40 S7        30.13S
WINCHESTER     SUNNY     73  46  38 SE3       30.11F
$$


...KEY TO REMARKS...
VSB - VISIBILITY IN MILES
WCI - WIND CHILL INDEX
HX  - HEAT INDEX




USA.gov is the U.S. government's official web portal to all federal, state and local government web resources and services.